Location: Cussac
(45.1833°N, 2.2667°E)
Time: 01:04:00
(UTC+00:00)

Daily predictions for brighter satellites

Satellite Brightness Start Highest point End
(mag) Time Altitude Azimuth Time Altitude Azimuth Time Altitude Azimuth
USA 215 4.3 03:20:49 10° E 03:25:43 37° NE 03:25:43 37° NE
Cosmos 1943 Rocket 2.7 04:06:38 58° ENE 04:06:38 58° ENE 04:11:28 10° NNE
CZ-2C R/B 4.2 04:04:01 10° SE 04:08:50 32° ENE 04:13:24 11° N
CENTAUR R/B 2.4 04:16:08 87° E 04:16:08 87° E 04:23:05 10° NE
Cosmos 2297 3.7 04:21:07 77° NE 04:21:07 77° NE 04:26:30 10° NNE
NOSS 3-2 (A) 3.5 04:27:49 60° N 04:27:49 60° N 04:33:32 10° NE
Cosmos 2278 Rocket 4.3 04:33:50 14° N 04:33:50 14° N 04:34:51 10° N
NOSS 3-2 (C) 3.2 04:33:35 63° SSW 04:34:36 85° SE 04:41:01 10° NE
Envisat 3.9 04:31:22 10° NNE 04:36:19 49° E 04:41:13 10° S
Cosmos 2098 Rocket 4.3 04:37:42 10° SSE 04:41:16 39° E 04:45:42 10° NNE
Meteor 2-3 Rocket 3.6 04:36:01 10° SSW 04:41:40 84° W 04:47:26 10° N
Cosmos 968 Rocket 3.4 04:42:38 34° SSW 04:44:55 85° ESE 04:50:05 10° NNE
Genesis I 3.6 04:49:24 61° SSE 04:49:24 61° SSE 04:52:47 10° SSE
Cosmos 921 Rocket 3.1 04:50:36 60° N 04:51:19 76° ENE 04:55:45 10° SSE
Meteor 1-26 Rocket 4.2 04:53:50 24° NNW 04:57:31 71° W 05:03:15 10° S
Cosmos 1812 3.0 04:56:57 48° NNE 04:57:51 66° E 05:01:39 10° SSE
Gbstr 26 Del rocket 4.4 05:01:04 24° SSW 05:01:04 24° SSW 05:03:31 10° SSE
USA 238 DEB 3.6 05:00:10 38° WSW 05:02:43 62° NW 05:09:34 10° NE
USA 238 3.6 05:00:14 37° WSW 05:02:50 63° NW 05:09:40 10° NE
Cosmos 1151 Rocket 3.2 05:01:35 19° N 05:04:43 72° E 05:09:05 10° SSE
Cosmos 2344 3.8 05:03:34 37° W 05:05:47 46° NW 05:13:28 10° NE
Cosmos 1766 Rocket 4.0 05:01:41 10° S 05:05:58 61° E 05:10:14 10° NNE
USA 215 3.2 05:02:50 10° SE 05:09:22 85° NE 05:13:03 29° NW
Cosmos 1782 3.8 05:15:55 31° SW 05:15:55 31° SW 05:18:17 10° SSW
Meteor 1-31 Rocket 2.7 05:10:51 10° NNE 05:14:45 88° ESE 05:18:40 10° SSW
Cosmos 2279 Rocket 4.0 05:09:09 10° N 05:15:22 82° E 05:21:34 10° S
Cosmos 1328 Rocket 3.8 05:13:00 10° N 05:17:24 69° E 05:21:44 10° SSE
SJ-12 3.9 05:16:05 10° N 05:20:10 59° WNW 05:24:14 10° SSW
Cosmos 2369 Rocket 2.0 05:14:49 10° SSW 05:20:24 75° WNW 05:26:02 10° NNE
FALCON 9 DEB 3.8 05:21:07 39° N 05:21:07 39° N 05:24:01 10° NE
Cosmos 1862 3.2 05:18:18 10° S 05:22:14 88° E 05:26:13 10° N
COSMO-SKYMED 1 2.6 05:19:15 10° S 05:23:31 57° W 05:25:48 26° NNW
H-2A R/B 2.9 05:24:34 10° N 05:28:07 44° WNW 05:31:41 10° SW
Cosmos 1634 Rocket 4.1 05:24:19 10° NNW 05:30:21 50° W 05:36:19 10° SSW
Cosmos 836 Rocket 4.4 05:27:51 19° NNW 05:31:40 66° WSW 05:36:49 10° S
CZ-4B R/B 3.6 05:34:01 10° NNE 05:37:30 48° E 05:40:58 10° S
CZ-4B R/B 3.9 05:37:07 10° ESE 05:39:39 20° ENE 05:42:10 10° NNE
MOS 1-B Rocket 4.5 05:34:00 10° SSW 05:39:51 37° W 05:44:43 12° NNW
Cosmos 1408 Rocket 3.8 05:37:04 10° S 05:41:20 68° E 05:45:37 10° NNE
Cosmos 1656 Rocket 3.5 05:38:43 10° SW 05:44:05 67° WNW 05:49:32 10° NNE
CZ-4C R/B 2.9 05:41:27 10° S 05:44:31 49° W 05:46:01 25° NW
Cosmos 1503 Rocket 4.0 05:39:16 10° SSW 05:44:31 84° WNW 05:49:54 10° NNE
DMSP B5D2-2 4.1 05:39:42 10° SSE 05:44:55 85° ENE 05:50:10 10° NNW
CZ-2C R/B 3.1 05:43:54 10° SSW 05:49:01 39° W 05:54:03 10° NNW
Cosmos 1943 Rocket 3.2 05:48:15 21° WNW 05:50:04 24° NW 05:54:37 10° N
Cosmos 1486 Rocket 4.3 05:47:13 10° SW 05:52:17 44° WNW 05:57:21 10° N
FALCON 9 DEB 4.4 05:56:51 18° NNW 05:57:29 19° N 05:59:40 10° NE
SL-8 R/B 3.7 05:54:22 20° WNW 05:57:41 84° SSW 06:02:29 10° ESE
Cosmos 1515 Rocket 3.4 05:53:20 10° N 05:57:43 81° W 06:02:03 10° S
Meteor 2-15 4.4 05:53:00 10° NNW 05:59:02 71° W 06:05:02 10° S
Cosmos 2180 Rocket 4.5 05:54:35 10° NNW 06:00:38 59° W 06:06:38 10° S
Meteor 1-27 Rocket 3.8 05:55:06 10° N 06:00:45 84° E 06:06:30 10° SSE
COSMOS 2487 4.3 06:01:40 10° N 06:04:37 28° ENE 06:07:32 10° SE
Cosmos 773 Rocket 4.0 05:59:52 10° NNW 06:05:08 85° WSW 06:10:18 10° SSE
SJ 16-02 1.9 06:01:33 10° S 06:05:52 62° ESE 06:10:12 10° NNE
CENTAUR R/B 3.6 06:03:21 15° W 06:07:43 29° NNW 06:14:03 10° NNE
NOAA 11 4.2 06:03:42 10° N 06:09:05 58° WNW 06:14:26 10° SSW
Alouette 2 Rocket 3.7 06:07:14 10° N 06:11:06 63° ENE 06:14:37 10° SSE
Meteor 2-19 Rocket 4.4 06:06:17 10° SSW 06:12:19 71° W 06:18:23 10° N
Cosmos 1340 Rocket 2.9 06:10:12 10° S 06:14:07 80° E 06:18:08 10° NNE
NOAA 12 4.0 06:09:00 10° NNE 06:14:17 79° WNW 06:19:31 10° SSW
Envisat 4.0 06:11:02 10° NNW 06:15:01 24° WNW 06:18:58 10° WSW
Cosmos 1500 Rocket 3.6 06:13:05 10° S 06:17:33 86° W 06:22:03 10° N
SL-27 R/B 2.4 06:14:46 10° NNW 06:18:21 68° WSW 06:21:51 10° S
DELTA 2 R/B (1) 4.5 06:15:25 10° WSW 06:20:42 46° S 06:25:59 10° ESE
Cosmos 1939 Rocket 2.7 06:16:53 10° N 06:20:49 71° WNW 06:24:40 10° SSW
Cosmos 2098 Rocket 4.4 06:19:47 10° WSW 06:22:40 19° WNW 06:26:01 10° NNW
NOSS 3-2 (C) 4.5 06:21:25 10° W 06:26:23 27° NNW 06:32:01 10° NNE
Cosmos 1805 Rocket 3.8 06:24:49 10° S 06:29:11 74° E 06:33:34 10° NNE
Sich 1 3.7 06:26:50 10° S 06:31:02 60° E 06:35:15 10° NNE
Okean O Rocket 3.9 06:27:20 10° NE 06:31:14 30° E 06:35:06 10° SSE
H-2A R/B 2.4 06:27:35 10° S 06:31:40 46° W 06:35:52 10° NNW
Cosmos 2026 Rocket 4.3 06:25:35 10° S 06:31:55 76° E 06:38:13 10° NNE
Meteor 1-25 Rocket 4.4 06:27:51 10° S 06:33:29 81° E 06:39:05 10° NNE
ATLAS 3B R/B 3.0 06:27:33 10° SSW 06:34:02 74° ESE 06:40:51 10° NE
Cosmos 1174 3.0 06:34:33 10° SW 06:37:31 84° NW 06:40:38 10° NNE
Cosmos 1500 3.9 06:33:58 10° S 06:37:42 59° E 06:41:28 10° NNE
ATLAS 5 CENTAUR R/B 1.3 06:34:11 10° SW 06:37:59 90° WNW 06:42:18 10° NE
ADEOS 4.4 06:34:44 10° N 06:39:10 29° WNW 06:43:34 10° WSW
Cosmos 158 Rocket 4.1 06:35:22 10° NNW 06:40:30 88° ENE 06:45:45 10° SSE
